Powrót do katalogu

FENGYUN 1C DEB

AktywnySSO
NORAD 31148·DEBRIS·🇨🇳 China

Wystrzelony May 10, 1999 z Taiyuan Satellite Launch Center

Loading…

Następne Przeloty (najbliższe 24 godziny)

TLE

ŚwieżeSource: Space-Track

Epoka: Sep 14, 2026, 03:49 UTC

1 31148U 99025BHA 26257.15967657  .00001865  00000-0  49526-3 0  9999
2 31148  98.8405 159.0736 0132537 309.5405  49.4133 14.44880966 14550

Śledź FENGYUN 1C DEB w czasie rzeczywistym z AllMySat

Download on the App Store